Lid_Strength_Index
-1 -1 -0 2 9 8 11 10 7 8 8 5 5 6 7 6 8 11 1 -0 -0 -1 -1 -1 -1 -1 -1 -1 -1 -1 -2 -2 -2 -2 -2 -2 -1 -1 -1 -1 -1 -1 -1 -1 -1 -1 -1 -1 -1
-1 0 1 4 10 12 11 8 9 7 6 4 5 5 6 8 4 3 2 -0 -1 -1 -1 -1 -1 -1 -1 -1 -1 -2 -2 -2 -2 -2 -2 -1 -1 -1 -1 -1 -1 -1 -1 -1 -1 -1 -1 -1 -1
-0 0 5 5 7 11 11 8 7 6 5 5 6 4 5 6 3 2 0 -0 -1 -1 -1 -2 -1 -1 -1 -1 -2 -2 -2 -1 -2 -2 -2 -1 -1 -1 -1 -1 -1 -1 -1 -1 -1 -1 -1 -1 -1
1 2 4 7 9 8 8 7 6 6 5 5 5 7 4 2 2 1 -0 -0 -0 -1 -1 -1 -1 -1 -1 -1 -1 -1 -2 -1 -2 -2 -1 -1 -1 -1 -1 -1 -1 -1 -1 -1 -1 -1 -1 -1 -1
1 3 6 8 9 7 6 6 6 7 6 6 5 7 6 2 1 0 -0 -0 -0 -0 -1 -1 -1 -1 -1 -1 -1 -2 -2 -2 -2 -1 -1 -1 -1 -1 -1 -1 -1 -1 -1 -1 -1 -1 -1 -1 -1
5 4 7 9 9 7 6 5 6 6 6 5 6 6 5 1 1 1 -0 -0 -1 -0 -1 -1 -1 -1 -1 -1 -1 -2 -2 -1 -1 -1 -1 -1 -1 -1 -1 -1 -1 -1 -1 -1 -1 -1 -1 -1 -1
5 6 7 8 8 8 7 4 6 6 6 6 4 7 4 3 1 0 -0 -1 -1 -1 -1 -1 -1 -2 -1 -1 -1 -2 -1 -1 -1 -1 -1 -1 -1 -1 -1 -1 -1 -1 -1 -1 -1 -1 -1 -1 -1
4 5 8 7 8 8 5 5 4 5 6 3 3 7 7 3 1 0 -0 -0 -0 -1 -1 -1 -2 -2 -2 -2 -1 -2 -1 -1 -1 -1 -1 -1 -1 -1 -1 -1 -1 -1 -1 -1 -1 -1 -1 -1 -1
3 7 8 8 8 7 5 6 4 3 5 4 4 4 3 1 1 1 1 1 0 0 -0 -1 -1 -1 -2 -2 -1 -1 -1 -1 -1 -1 -1 -1 -2 -2 -1 -2 -1 -1 -1 -1 -1 -1 -1 -1 -1
5 7 7 5 5 6 5 5 5 6 6 5 5 3 2 2 2 2 2 2 1 1 0 -1 -1 -1 -1 -1 -2 -2 -2 -2 -2 -2 -2 -2 -2 -2 -2 -2 -1 -1 -1 -1 -1 -1 -1 -1 -2
5 7 5 5 5 4 5 5 4 6 7 5 5 4 3 2 2 2 2 2 1 0 0 -0 -1 -1 -1 -1 -1 -1 -1 -2 -2 -2 -2 -2 -2 -2 -2 -2 -2 -2 -1 -1 -1 -1 -1 -1 -2
6 5 5 5 4 4 5 4 6 5 5 3 3 3 3 3 3 2 2 2 1 1 0 -1 -1 -1 -1 -1 -1 -1 -1 -1 -1 -1 -2 -2 -1 -1 -2 -1 -2 -2 -2 -1 -2 -1 -2 -1 -2
6 4 4 4 4 4 4 5 5 5 4 3 3 3 3 3 2 2 1 1 1 1 0 -0 -1 -1 -1 -1 -1 -1 -1 -1 -1 -1 -2 -2 -1 -1 -1 -1 -1 -2 -2 -1 -1 -1 -1 -1 -1
5 5 5 4 4 4 5 5 5 4 3 4 4 4 3 3 2 2 2 1 1 1 0 -0 -0 -1 -1 -1 -2 -1 -1 -1 -1 -1 -2 -2 -1 -1 -1 -1 -1 -1 -2 -2 -1 -1 -1 -1 -1
5 6 6 5 5 6 4 7 7 4 4 4 4 4 3 3 2 2 2 1 1 0 -0 -0 -0 -1 -1 -1 -1 -1 -1 -1 -1 -1 -2 -2 -3 -2 -2 -2 -1 -1 -3 -2 -2 -2 -1 -1 -1
6 5 8 6 5 5 5 9 6 4 4 5 4 4 4 3 2 2 1 1 0 0 0 -0 -0 -1 -1 -1 -1 -1 -1 -1 -2 -1 -2 -2 -2 -2 -2 -1 -1 -1 -1 -2 -1 -1 -0 -1 -1
6 9 8 8 5 6 7 8 6 4 5 5 5 4 4 3 3 2 1 1 0 0 0 0 -0 -0 -1 -1 -1 -1 -2 -1 -1 -1 -3 -2 -2 -2 -1 -1 -1 -2 -2 -1 -1 -1 -1 -0 -0
9 8 7 8 7 6 7 7 6 5 5 5 5 4 4 4 3 2 1 1 0 0 0 -0 -0 -1 -1 -1 -1 -1 -1 -1 -1 -2 -1 -2 -2 -2 -2 -1 -2 -1 -1 -1 -1 -1 -1 -0 -0
6 7 8 7 6 7 7 7 7 5 5 5 5 5 4 4 2 2 1 1 1 0 0 0 0 -0 -0 0 1 0 1 -0 -0 -1 -2 -2 -2 -2 -2 -1 -2 -1 -1 -1 -1 -1 -1 0 -2
6 7 8 7 6 7 7 8 6 6 6 5 5 5 4 4 3 2 2 1 1 1 1 0 0 -0 -0 -0 -0 -0 -0 -0 -1 -1 -2 -2 -2 -2 -1 -1 -1 -1 -1 -1 -1 -1 0 -0 -1
7 7 7 8 7 7 7 9 8 6 5 5 4 4 4 4 4 3 2 2 1 1 1 1 0 -0 -0 -1 -0 -0 -0 -0 0 -0 -0 -1 -1 -1 -1 -1 -1 -1 -1 -1 -1 -1 -0 1 -1
8 6 6 7 9 11 7 12 8 6 6 6 5 5 4 4 3 3 2 2 2 1 1 0 0 0 -0 -0 -0 0 1 1 0 -0 -1 -1 -1 -1 -1 -1 -1 -1 -1 -2 -1 -2 -1 -0 1
7 5 6 7 9 9 9 11 8 7 8 7 6 5 4 3 3 3 2 2 1 1 1 0 0 0 -0 -0 -0 1 1 0 0 0 -1 -1 -1 -1 -1 -2 -2 -1 -1 -1 -1 -1 -1 -1 0
6 6 6 7 8 12 9 10 10 8 7 6 5 5 4 3 3 2 2 1 1 1 1 1 1 1 0 0 0 0 0 0 1 0 1 0 -0 -0 -1 -1 -2 -2 -1 -1 -1 -1 -1 -1 -0
7 7 12 13 12 13 8 10 9 6 5 5 4 4 4 3 3 3 2 2 2 2 1 1 1 1 0 0 0 0 0 0 0 0 1 -0 0 0 -1 -1 -1 -1 -1 -1 -1 -1 -1 -1 -0
8 7 11 15 13 12 8 11 9 5 4 3 3 3 4 3 3 3 2 2 2 2 1 1 1 1 1 1 0 0 0 0 0 0 0 0 0 -0 -1 -1 -1 -1 -1 -1 -1 -1 -1 -1 -0
8 9 6 9 8 11 9 8 6 5 5 4 4 4 4 4 3 3 2 2 2 2 2 1 1 1 1 1 0 0 0 0 0 -0 -0 -0 -1 -1 -1 -1 -1 -1 -1 -1 -1 -0 -1 -1 -1
7 5 9 9 14 14 10 10 10 7 6 5 4 4 4 3 3 3 2 2 2 1 1 1 1 1 1 1 0 0 0 0 -0 -0 0 -0 -1 -1 -1 -1 -1 -1 -1 -1 -1 -1 -1 -1 -1
7 8 7 7 9 12 13 10 5 6 5 5 4 3 3 3 3 3 2 2 2 1 1 1 1 1 1 1 1 1 1 0 -0 0 0 0 -1 -1 -1 -0 -0 -1 -1 -1 -1 -1 -1 -0 -0
6 7 7 10 11 9 10 10 5 5 4 4 4 3 3 2 2 3 2 2 2 2 2 1 1 1 1 1 1 1 0 0 0 1 0 -0 -0 -1 -1 -0 -0 -0 -0 -1 -0 0 -0 -0 0